Showing default

LES 8, 8746

Orbit data source: Space-Track

LES 8, 8746 is a payload satellite owned by SAMSO (US) in GEO that was launched on Mon, 15 Mar 1976 UTC via a TITAN IIIC launch vehicle from the Air Force Eastern Test Range (AFETR). Payload-class satellites include a variety of spacecraft equipped with specific instruments for various scientific and technological missions. These include communications satellites like Starlink; space stations such as the ISS; scientific satellites like the Hubble; Earth observation satellites from companies like Planet Labs, Umbra, and HawkEye 360; GPS; miniature CubeSats for education and research; and military/defense satellites.

Loading next visibility...
Identifier
8746, 1976-023A
Orbit
GEO
Country
Flag of USUS
Related business
Manufacturer
MIT-LL
Mission
Non-operational spacecraft
Bus & Motor
LES, Unknown motor
Mass
420 kg wet, 366 kg dry
Launch date (UTC)
1976-03-15 (50 years ago)
Launch vehicle
TITAN IIIC
Launch site
Air Force Eastern Test Range (AFETR)
Object type
Payload
Rocket body
Debris
Shape & HBR
Unknown
Radar Cross Section
Large (>1 m²)

Expand to show TLE details & history
Last TLE update: 1 day ago

TLE from 1 day ago
0 LES 8
1 08746U 76023A   25310.34273373 -.00000121  00000-0  00000-0 0  9991
2 08746  21.9856  39.8790 0033003 154.1796 232.3735  1.00273395127450
Epoch: 2025-11-06T08:13Z
TLE epoch observation values (Epoch: 2025-11-06T08:13:32.194Z)
Latitude
9.5541°
Longitude
-104.74901°
Altitude
35,871.147 km
Speed
3.069 km/s
True Right ascension
04h 17m 45s
True Declination
9° 32' 41"
Sunlit
Object was in daylight at epoch
Visualization orbit readout
Latitude
Unknown
Longitude
Unknown
Altitude
Unknown
Speed
Unknown
Apparent Right ascension
Unknown
Apparent Declination
Unknown
Sunlit
N/A
Visualization observer readout
Local Sidereal Time
07:07:19
Azimuth
Unknown
Elevation
Unknown
Doppler factor
Unknown
Orbital elements
Apogee altitude
35,926.152 km
Perigee altitude
35,647.837 km
Semi-major axis
42,165.131 km
Eccentricity
0.0033
Inclination
21.9856°
RAAN
39.879°
Arg. of periapsis
154.1796°
True anomaly
232.07473°
Mean anomaly
232.3735°
Eccentric anomaly
232.22404°
Mean motion
0.25068 °/min
Orbital period
1,436.12 mins
BSTAR
0
Loading maneuver chart data...
Computing Atmospheric mass density...
Loading historical data...
Loading historical data...
Loading historical data...
Loading historical data...
Loading historical data...
Loading historical data...
Loading historical data...

Documentation

Showing up to 5 results
|